Volver al catálogo

STARLINK-32269

ActivoComunicacionesVLEO
NORAD 60377·PAYLOAD·🇺🇸 United States

Lanzado Aug 4, 2024 desde Vandenberg Space Force Base

Loading…

Próximos Pases (próximas 24 horas)

TLE

ActualizadoSource: CelesTrak SupGP

Época: Sep 14, 2026, 21:37 UTC

1 60377C 24138Y   26257.90118056 -.00065793  00000+0 -21151-2 0  2573
2 60377  53.1568 149.7034 0001257  92.5182 181.4702 15.31744118    12

Sigue STARLINK-32269 en tiempo real con AllMySat

Download on the App Store